Location: Grust
(42.8833°N, 0.0333°W)
Time: 19:52:14
(UTC+00:00)

CZ-4 R/B - Pass Details

Date: 25 October 2020
Orbit: 531 x 599 km, 97.7° (Epoch: 22 November)

Event Time Altitude Azimuth Distance (km) Brightness Sun altitude
Rises 18:56:26 0° 181° (S) 2,716 4.8 -21.6°
Reaches altitude 10° 18:58:38 10° 187° (S) 1,817 4.0 -22.0°
Maximum altitude 19:02:24 44° 261° (W) 756 2.4 -22.7°
Drops below altitude 10° 19:06:08 10° 334° (NNW) 1,803 4.3 -23.4°
Sets 19:08:19 0° 341° (NNW) 2,693 5.1 -23.8°
